Location: Monteux
(44.0348°N, 4.9972°E)
Time: 17:27:07
(UTC+00:00)

CZ-4 R/B - Pass Details

Date: 30 November 2020
Orbit: 532 x 597 km, 97.7° (Epoch: 22 January)

Event Time Altitude Azimuth Distance (km) Brightness Sun altitude
Rises 17:34:11 0° 143° (SE) 2,710 4.6 -15.9°
Enters shadow 17:34:39 - 142° (SE) 2,519 4.5 -15.9°
Exits shadow 17:40:46 31° 45° (NE) 1,014 2.2 -17.0°
Drops below altitude 10° 17:43:39 10° 5° (N) 1,881 3.8 -17.5°
Sets 17:45:58 0° 356° (N) 2,795 4.8 -17.9°
